Simultaneous Nadir Overpasses (SNOs) Predictions

Prediction of SNOs between METOP-B and TERRA Satellite Orbit:

Table of predicted SNOs for the next 14.0 days since TLE Epoch: 3/23/2019
Index Date (METOP-B) Time (METOP-B) Lat,Lon (METOP-B) SZA (METOP-B ) Date (TERRA) Time (TERRA) Lat,Lon (TERRA) SZA (TERRA ) Distance(km) Time Diff (sec)
1 03/24/2019 07:17:55 81.30, 117.84 82.57 03/24/2019 07:18:06 81.30, 117.86 82.58 0.70 11
2 03/24/2019 08:08:35 -81.30, -74.64 97.42 03/24/2019 08:07:33 -81.30, -74.65 97.46 0.56 62
3 03/27/2019 02:52:19 81.30,-175.83 81.49 03/27/2019 02:52:21 81.30,-175.76 81.50 1.21 2
4 03/27/2019 03:42:59 -81.30, -8.29 98.51 03/27/2019 03:41:48 -81.29, -8.24 98.54 1.14 71
5 03/29/2019 21:36:01 -81.30, 83.14 99.59 03/29/2019 21:37:08 -81.30, 83.07 99.56 1.31 67
6 03/29/2019 22:26:42 81.30,-109.51 80.41 03/29/2019 22:26:35 81.29,-109.55 80.39 1.19 7
7 04/01/2019 17:10:25 -81.29, 149.46 100.66 04/01/2019 17:11:22 -81.30, 149.52 100.62 1.23 57
8 04/01/2019 18:01:05 81.30, -42.81 79.38 04/01/2019 18:00:48 81.31, -42.76 79.38 1.18 17
9 04/04/2019 12:44:49 -81.29,-144.22 101.72 04/04/2019 12:45:36 -81.29,-144.21 101.70 0.21 47




NCC Satellite Simultaneous Nadir Overpasses (SNOs) Prediction Service
